Reflectivity
-20 -20 -20 -20 -20 -20 -20 -20 -20 -20 -20 -20 -20 -20 -20 -20 -20 -20 -20 -20 -20 -20 -20 -20 -20 -20 -20 -20 -20 -20 -20 -20 -20 -20 -20 -20 -20 -20 -20 -20 -20 -20 -20 -20 -20
-20 -20 -20 -20 -20 -20 -20 -20 -20 -20 -20 -20 -20 -20 -20 -20 -20 -20 -20 -20 -20 -20 -20 -20 -20 -20 -20 -20 -20 -20 -20 -20 -20 -20 -20 -20 -20 -20 -20 -20 -20 -20 -20 -20 -20
-20 -20 -20 -20 -20 -20 -20 -20 -20 -20 -20 -20 -20 -20 -20 -20 -20 -20 -20 -20 -20 -20 -20 -20 -20 -20 -20 -20 -20 -20 -20 -20 -20 -20 -20 -20 -20 -20 -20 -20 -20 -20 -20 -20 -20
-20 -20 -20 -20 -20 -20 -20 -20 -20 -20 -20 -20 -20 -20 -20 -20 -20 -20 -20 -20 -20 -20 -20 -20 -20 -20 -20 -20 -20 -20 -20 -20 -20 -20 -20 -20 -20 -20 -20 -20 -20 -20 -20 -20 -20
-20 -20 -20 -20 -20 -20 -20 -20 -20 -20 -20 -20 -20 -20 -20 -20 -20 -20 -20 -20 -20 -20 -20 -20 -20 -20 -20 -20 -20 -20 -20 -20 -20 -20 -20 -20 -20 -20 -20 -20 -20 -20 -20 -20 -20
-20 -20 -20 -20 -20 -20 -20 -20 -20 -20 -20 -20 -20 -20 -20 -20 -20 -20 -20 -20 -20 -20 -20 -20 -20 -20 -20 -20 -20 -20 -20 -20 -20 -20 -20 -20 -20 -20 -20 -20 -20 -20 -20 -20 -20
-20 -20 -20 -20 -20 -20 -20 -20 -20 -20 -20 -20 -20 -20 -20 -20 -20 -20 -20 -20 -20 -20 -20 -20 -20 -20 -20 -20 -20 -20 -20 -20 -20 -20 -20 -20 -20 -20 -20 -20 -20 -20 -20 -20 -20
-20 -20 -20 -20 -20 -20 -20 -20 -20 -20 -20 -20 -20 -20 -20 -20 -20 -20 -20 -20 -20 -20 -20 -20 -20 -20 -20 -20 -20 -20 -20 -20 -20 -20 -20 -20 -20 -20 -20 -20 -20 -20 -20 -20 -20
-20 -20 -20 -20 -20 -20 -20 -20 -20 -20 -20 -20 -20 -20 -20 -20 -20 -20 -20 -20 -20 -20 -20 -20 -20 -20 -20 -20 -20 -20 -20 -20 -20 -20 -20 -20 -20 -20 -20 -20 -20 -20 -20 -20 -20
-20 -20 -20 -20 -20 -20 -20 -20 -20 -20 -20 -20 -20 -20 -20 -20 -20 -20 -20 -20 -20 -20 -20 -20 -20 -20 -20 -20 -20 -20 -20 -20 -20 -20 -20 -20 -20 -20 -20 -20 -20 -20 -20 -20 -20
-20 -20 -20 -20 -20 -20 -20 -20 -20 -20 -20 -20 -20 -20 -20 -20 -20 -20 -20 -20 -20 -20 -20 -20 -20 -20 -20 -20 -20 -20 -20 -20 -20 -20 -20 -20 -20 -20 -20 -20 -20 -20 -20 -20 -20
-20 -20 -20 -20 -20 -20 -20 -20 -20 -20 -20 -20 -20 -20 -20 -20 -20 -20 -20 -20 -20 -20 -20 -20 -20 -20 -20 -20 -20 -20 -20 -20 -20 -20 -20 -20 -20 -20 -20 -20 -20 -20 -20 -20 -20
-20 -20 -20 -20 -20 -20 -20 -20 -20 -20 -20 -20 -20 -20 -20 -20 -20 -20 -20 -20 -20 -20 -20 -20 -20 -20 -20 -20 -20 -20 -20 -20 -20 -20 -20 -20 -20 -20 -20 -20 -20 -20 -20 -20 -20
-20 -20 -20 -20 -20 -20 -20 -20 -20 -20 -20 -20 -20 -20 -20 -20 -20 -20 -20 -20 -20 -20 -20 -20 -20 -20 -20 -20 -20 -20 -20 -20 -20 -20 -20 -20 -20 -20 -20 -20 -20 -20 -20 -20 -20
-20 -20 -20 -20 -20 -20 -20 -20 -20 -20 -20 -20 -20 -20 -20 -20 -20 -20 -20 -20 -20 -20 -20 -20 -20 -20 -20 -20 -20 -20 -20 -20 -20 -20 -20 -20 -20 -20 -20 -20 -20 -20 -20 -20 -20
-20 -20 -20 -20 -20 -20 -20 -20 -20 -20 -20 -20 -20 -20 -20 -20 -20 -20 -20 -20 -20 -20 -20 -20 -20 -20 -20 -20 -20 -20 -20 -20 -20 -20 -20 -20 -20 -20 -20 -20 -20 -20 -20 -20 -20
-20 -20 -20 -20 -20 -20 -20 -20 -20 -20 -20 -20 -20 -20 -20 -20 -20 -20 -20 -20 -20 -20 -20 -20 -20 -20 -20 -20 -20 -20 -20 -20 -20 -20 -20 -20 -20 -20 -20 -20 -20 -20 -20 -20 -20
-14 -20 -20 -20 -20 -20 -20 -20 -20 -20 -20 -20 -20 -20 -20 -20 -20 -20 -20 -20 -20 -20 -20 -20 -20 -20 -20 -20 -20 -20 -20 -20 -20 -20 -20 -20 -20 -20 -20 -20 -20 -20 -20 -20 -20
-20 -20 -20 -20 -20 -20 -20 -20 -20 -20 -20 -20 -20 -20 -20 -20 -20 -20 -20 -20 -20 -20 -20 -20 -20 -20 -20 -20 -20 -20 -20 -20 -20 -20 -20 -20 -20 -20 -20 -20 -20 -20 -20 -20 -20
-9 -20 -20 -20 -20 -20 -20 -20 -20 -20 -20 -20 -20 -20 -20 -20 -20 -20 -20 -20 -20 -20 -20 -20 -20 -20 -20 -20 -20 -20 -20 -20 -20 -20 -20 -20 -20 -20 -20 -20 -20 -20 -20 -20 -20
-15 -7 -20 -20 -20 -20 -20 -20 -20 -20 -20 -20 -20 -20 -20 -20 -20 -20 -20 -20 -20 -20 -20 -20 -20 -20 -20 -20 -20 -20 -20 -20 -20 -20 -20 -20 -20 -20 -20 -20 -20 -20 -20 -20 -20
3 -14 -20 -20 -20 -20 -20 -20 -20 -20 -20 -20 -20 -20 -20 -20 -20 -20 -20 -20 -20 -20 -20 -20 -20 -20 -20 -20 -20 -20 -20 -20 -20 -20 -20 -20 -20 -20 -20 -20 -20 -20 -20 -20 -20
-5 -20 -17 -20 -20 -20 -20 -20 -20 -20 -20 -20 -20 -20 -20 -20 -20 -20 -20 -20 -20 -20 -20 -20 -20 -20 -20 -20 -20 -20 -20 -20 -20 -20 -20 -20 -20 -20 -20 -20 -20 -20 -20 -20 -20
-20 6 -4 -20 -20 -20 -20 -20 -20 -20 -20 -20 -20 -20 -20 -20 -20 -20 -20 -20 -20 -20 -20 -20 -20 -20 -20 -20 -20 -20 -20 -20 -20 -20 -20 -20 -20 -20 -20 -20 -20 -20 -20 -20 -20
11 2 -18 -20 -20 -20 -14 -6 -20 -20 -20 -20 -20 -20 -20 -20 -20 -20 -20 -20 -20 -20 -20 -20 -20 -20 -20 -20 -20 -20 -20 -20 -20 -20 -20 -20 -20 -20 -20 -20 -20 -20 -20 -20 -20
5 -1 -20 -20 -20 -20 -20 -20 -20 -20 -20 -20 -20 -11 -20 -20 -20 -20 -20 -20 -20 -20 -20 -20 -20 -20 -20 -20 -20 -20 -20 -20 -20 -20 -20 -20 -20 -20 -20 -20 -20 -20 -20 -20 -20
-8 -18 -20 -20 -18 -9 -14 -20 -20 -12 -9 -20 1 -20 -20 -20 -20 -20 -20 -20 -20 -20 -20 -20 -20 -20 -20 -20 -20 -20 -20 -20 -20 -20 -20 -20 -20 -20 -20 -20 -20 -20 -20 -20 -20
Wind_Speed
7 9 11 12 12 12 12 13 13 13 13 14 14 14 12 10 6 4 14 9 9 17 9 9 3 1 4 6 5 3 3 4 5 6 11 11 17 17 18 23 27 18 18 13 12
6 8 10 12 13 13 13 13 13 14 13 14 13 12 11 9 4 17 4 9 11 9 9 10 6 2 5 4 4 5 2 8 8 8 10 14 11 8 15 21 23 21 19 17 17
5 8 9 11 12 14 14 14 14 14 14 14 13 12 10 8 2 8 12 13 12 10 3 2 1 1 7 6 7 9 10 7 10 6 7 19 23 10 15 20 18 18 19 19 20
5 7 9 11 12 14 14 15 15 15 15 14 13 12 9 6 1 9 12 11 12 9 8 8 5 2 5 8 5 16 14 17 18 11 17 22 24 27 24 19 17 19 19 19 21
4 7 9 11 12 14 14 15 15 16 15 13 12 11 5 6 5 8 11 6 6 8 12 7 11 5 7 8 14 17 19 21 20 22 23 23 24 22 21 17 17 18 19 20 20
3 6 8 10 12 14 15 15 15 15 13 11 12 13 3 6 4 8 11 3 10 7 9 11 7 7 10 7 7 17 18 16 18 17 18 21 16 11 14 14 16 17 19 19 20
3 5 8 10 12 14 15 16 15 15 12 10 10 5 8 7 4 7 7 4 7 6 6 8 5 0 4 11 10 10 14 19 12 2 7 16 20 17 13 12 15 16 16 16 17
4 4 8 10 12 14 16 16 15 13 11 7 7 3 5 2 6 9 12 3 7 4 4 4 4 7 4 8 8 9 2 7 16 7 4 15 11 10 8 11 14 15 14 14 18
7 3 7 9 12 13 16 18 12 9 9 9 3 2 6 2 4 9 9 7 4 5 5 2 2 4 7 9 9 4 5 2 5 17 4 3 16 10 8 10 12 13 14 14 15
7 3 6 9 10 13 17 8 7 9 5 3 1 6 2 4 6 8 6 4 2 4 5 1 2 6 5 5 1 3 6 6 8 13 16 18 18 12 9 10 11 12 13 14 16
6 4 6 8 10 11 10 4 6 5 8 6 5 5 4 2 2 9 5 2 2 1 4 3 2 8 9 9 7 4 5 11 12 7 11 15 16 12 9 8 9 12 12 14 16
6 5 5 8 10 9 5 3 4 5 10 5 4 6 4 3 2 13 9 1 1 6 5 5 9 7 5 4 7 7 8 10 6 4 9 13 13 10 8 9 9 10 12 13 15
6 5 4 6 8 3 2 3 5 4 4 4 4 4 4 3 6 11 10 3 8 8 3 3 8 1 2 5 6 6 2 8 7 7 9 12 10 11 9 9 10 10 11 14 18
6 5 4 6 1 1 2 3 3 3 5 6 3 3 1 1 4 6 8 5 3 7 7 7 3 2 3 5 6 4 3 4 13 11 4 17 0 15 12 8 7 9 12 14 17
7 4 0 4 3 2 4 3 2 4 7 7 5 2 3 1 2 7 6 3 6 4 5 5 3 2 0 5 5 7 1 6 11 11 4 17 9 11 14 9 4 8 12 14 15
7 5 7 4 3 3 3 2 3 6 5 6 4 6 6 6 4 2 4 7 1 5 9 7 3 4 5 2 6 3 4 4 6 7 8 6 11 10 10 2 3 7 12 13 14
5 6 3 1 4 2 2 4 7 6 3 9 7 7 6 4 5 4 6 8 2 4 3 5 4 4 4 4 3 5 7 5 7 7 3 5 7 10 9 7 6 8 11 12 12
7 3 4 5 2 5 4 5 8 4 7 5 8 10 4 3 4 3 4 6 8 3 3 4 7 3 6 5 5 3 6 5 6 5 5 6 6 9 9 7 4 6 8 9 11
11 3 3 3 1 3 5 7 2 7 10 14 13 7 5 5 2 3 5 5 4 6 3 1 4 4 6 2 4 3 2 4 4 1 5 2 6 8 9 6 3 7 9 10 11
5 4 3 4 2 3 5 3 1 2 8 17 7 3 6 8 6 3 3 2 4 2 3 3 3 1 3 3 5 5 3 4 4 5 5 4 6 4 11 6 2 7 9 10 11
3 5 2 3 3 4 6 3 3 3 0 4 5 7 7 7 5 4 5 4 1 4 1 1 4 5 4 1 2 4 4 1 5 5 5 7 3 4 9 5 4 7 9 11 11
4 5 2 2 5 1 4 4 2 6 2 3 4 7 8 5 5 4 5 4 1 1 1 2 2 3 2 2 3 4 3 6 5 3 3 5 2 7 6 4 4 6 7 8 9
4 4 1 1 6 5 5 5 2 5 3 3 4 1 3 6 5 4 5 3 3 2 3 4 2 3 6 6 4 5 3 4 4 4 11 8 2 8 5 2 3 4 5 6 8
4 5 2 2 2 7 8 7 5 3 4 4 5 4 7 5 5 7 6 3 2 3 2 3 3 6 6 5 3 5 7 9 10 7 9 12 12 12 8 4 1 1 3 5 6
3 3 1 7 5 5 4 9 8 6 3 1 4 3 7 5 5 6 5 6 5 6 3 3 5 3 5 5 6 11 14 12 15 15 9 9 8 5 4 1 1 2 2 4 6
5 5 2 4 7 8 1 7 10 5 4 4 7 9 4 5 2 8 8 7 4 7 5 2 1 2 6 3 5 12 17 16 15 16 17 17 18 2 6 4 1 1 1 3 4
1 2 1 1 5 6 5 7 9 11 2 3 8 8 7 7 9 9 7 6 5 5 8 6 4 3 4 2 7 13 13 11 6 5 9 9 4 8 7 3 1 2 2 1 2
Wind_Direction
330 330 329 330 332 334 330 327 325 322 322 318 320 325 333 325 286 114 43 334 302 310 295 288 214 353 57 67 26 288 217 109 74 24 53 31 88 72 79 71 60 69 68 75 67
321 327 329 331 331 329 326 324 323 320 320 319 319 324 325 319 41 54 351 294 282 293 350 3 47 13 82 45 34 339 22 56 32 43 79 59 80 108 86 70 68 74 74 73 70
316 326 327 330 329 324 322 320 320 319 320 319 317 316 312 291 282 26 2 334 323 297 320 28 287 69 77 55 16 31 62 66 24 68 116 89 61 62 99 69 64 75 75 67 64
308 321 324 326 326 322 321 319 318 318 319 319 316 312 310 235 134 13 339 312 296 311 23 18 27 74 66 68 64 91 65 74 72 84 92 89 87 74 74 84 83 79 74 70 62
291 315 324 324 323 321 319 318 317 316 315 316 314 311 257 109 74 358 317 333 338 14 29 34 47 63 84 101 90 102 96 95 84 81 85 88 76 84 81 87 88 82 72 63 57
265 315 324 323 322 320 317 316 315 311 310 315 317 310 212 111 9 342 336 346 12 13 44 42 53 61 82 87 67 111 108 97 85 92 91 86 71 101 92 98 87 75 69 62 56
246 316 321 321 322 319 314 312 312 308 305 312 321 314 86 79 10 356 1 19 359 5 54 42 34 246 131 107 123 139 135 118 58 159 152 107 68 90 106 102 89 78 69 60 51
256 312 322 325 323 318 312 309 308 299 302 304 308 269 79 7 338 14 360 49 48 40 50 28 42 81 37 123 139 162 205 222 59 16 16 203 110 111 114 105 85 75 66 56 47
259 305 325 324 322 317 311 310 293 286 287 289 232 257 110 312 359 356 11 357 39 81 74 87 69 62 164 170 159 180 113 352 106 20 136 141 128 124 126 99 85 74 61 49 39
255 291 325 323 320 318 311 279 300 291 245 248 135 160 83 26 342 332 19 7 70 131 138 101 128 142 121 236 335 99 152 83 49 50 84 109 120 128 115 98 83 70 55 45 39
245 286 323 325 322 324 323 239 206 162 48 26 54 75 74 44 299 21 3 246 155 175 104 43 184 63 57 45 69 94 96 104 115 92 83 114 123 124 107 102 91 63 54 47 37
229 279 321 327 318 313 282 260 23 15 104 49 59 86 50 349 58 28 347 109 230 117 146 164 89 74 74 74 104 120 114 107 78 112 135 141 131 124 107 87 73 67 55 37 23
223 272 315 313 308 273 16 66 337 306 105 71 38 55 37 30 49 13 358 54 69 95 88 63 95 84 70 100 124 96 62 177 140 123 146 152 158 153 125 112 97 71 47 33 24
216 268 309 313 186 132 98 355 327 307 170 139 149 92 152 151 77 7 11 352 72 96 74 74 80 118 135 90 314 180 54 199 161 182 215 215 221 189 166 133 90 57 36 25 18
206 242 297 25 103 209 54 316 287 247 203 141 120 47 85 76 104 51 18 54 78 88 257 88 121 123 231 40 341 59 211 205 194 227 254 190 256 116 162 177 82 44 30 22 14
198 208 179 128 93 65 315 266 239 214 200 144 144 156 134 67 69 94 61 65 47 70 68 92 75 27 33 68 39 126 148 151 207 231 242 187 239 151 178 185 115 33 28 15 10
160 133 182 85 108 131 193 207 175 232 155 152 153 156 116 87 78 42 61 60 32 181 147 149 82 97 8 240 205 224 245 224 209 200 332 130 236 49 115 100 57 23 17 12 8
165 164 58 69 105 161 196 201 218 110 162 127 138 132 111 145 87 96 124 103 60 344 148 220 169 351 9 18 348 347 306 321 292 299 343 168 256 100 127 115 75 38 19 11 14
158 109 108 62 335 192 209 203 228 174 147 148 143 144 120 126 117 140 54 77 46 11 349 231 115 118 43 358 294 113 252 1 282 204 258 218 121 151 159 149 68 26 15 15 14
155 133 91 7 211 203 211 215 142 106 135 161 135 219 145 150 157 166 154 84 112 36 334 94 202 62 82 258 83 318 89 233 185 278 274 192 274 50 182 186 9 18 11 11 7
156 146 114 26 226 198 203 157 147 114 187 189 139 133 137 141 144 126 119 129 184 107 82 24 275 130 205 300 347 177 203 318 299 290 296 304 30 52 124 128 8 13 13 7 4
177 150 74 172 162 219 168 129 115 145 93 107 97 98 144 139 126 124 133 54 129 158 148 69 312 244 27 78 290 281 290 262 270 175 253 297 307 120 130 109 14 13 16 10 8
132 101 134 213 176 161 132 118 82 145 113 133 114 78 142 131 118 117 117 83 138 175 169 163 175 249 178 183 187 248 205 250 256 272 261 271 55 166 160 154 41 1 12 28 29
151 119 101 140 350 151 149 137 121 55 85 76 107 112 129 125 45 135 132 137 146 137 68 226 200 265 291 4 345 241 228 230 234 263 280 247 284 183 206 243 99 21 25 50 53
354 127 314 160 176 157 131 147 147 144 84 195 106 214 147 130 128 131 143 147 159 155 159 247 255 237 270 271 253 269 267 241 240 252 263 285 290 334 214 212 78 41 48 59 30
140 140 60 87 125 123 87 178 163 133 149 169 163 146 138 141 186 175 161 192 176 171 181 167 211 252 260 215 243 261 264 255 255 256 264 274 276 17 126 141 154 117 79 33 25
101 54 203 195 127 140 176 157 172 130 63 28 156 139 150 87 73 65 66 83 122 170 172 178 181 199 270 213 285 261 259 240 232 237 245 263 3 139 168 192 213 163 121 74 21